Lincolnton, NC

6:29 AM EST on December 18, 2017 (GMT -0500)
Lincolnton-Lincoln County Regional

Weather History for KIPJ - November, 2012

Change the Weather History Date:

Saturday, November 3, 2012

  Actual Average (KCLT) Record (KCLT)
Temperature  
Mean Temperature 50 °F -  
Max Temperature 69 °F 68 °F 84 °F (1961)
Min Temperature 32 °F 46 °F 24 °F (1954)
Degree Days  
Heating Degree Days 14    
Moisture  
Dew Point 33 °F    
Average Humidity 67    
Maximum Humidity 100    
Minimum Humidity 18    
Precipitation  
Precipitation 0.00 in - - ()
Sea Level Pressure  
Sea Level Pressure 30.03 in    
Wind  
Wind Speed 1 mph (WSW)    
Max Wind Speed 9 mph    
Max Gust Speed -    
Visibility 10 miles    
Events      
Averages and records for this station are not official NWS values.
T = Trace of Precipitation, MM = Missing Value Source: NWS Daily Summary

Daily Weather History Graph

Daily Weather History Graph

Search for Another Location

Airport or City:

Trip Planner

Search our weather history database for the weather conditions in past years. The results will help you decide how hot, cold, wet, or windy it might be!

Date:

Astronomy

Nov. 03, 2012 Rise Set
Actual Time 7:48 AM EDT 6:27 PM EDT
Civil Twilight 7:22 AM EDT 6:53 PM EDT
Nautical Twilight 6:52 AM EDT 7:23 PM EDT
Astronomical Twilight 6:22 AM EDT 7:53 PM EDT
Moon 10:10 PM EDT (11/3) 11:48 AM EDT (11/3)
Length of Visible Light 11h 31m
Length of Day
10h 38m
Waning Gibbous, 80% of the Moon is Illuminated
Nov 3
Waning Gibbous
Nov 6
Last Quarter
Nov 13
New
Nov 20
First Quarter
Nov 28
Full

Hourly Weather History & Observations

Time (EDT) Temp. Dew Point Humidity Pressure Visibility Wind Dir Wind Speed Gust Speed Precip Events Conditions
12:15 AM 35.6 °F 32.0 °F 87% 29.98 in 10.0 mi Calm Calm - N/A   Clear
12:35 AM 35.6 °F 32.0 °F 87% 29.98 in 10.0 mi Calm Calm - N/A   Clear
12:55 AM 37.4 °F 32.0 °F 81% 29.98 in 10.0 mi Calm Calm - N/A   Clear
1:15 AM 35.6 °F 32.0 °F 87% 29.99 in 10.0 mi Calm Calm - N/A   Clear
1:35 AM 33.8 °F 32.0 °F 93% 30.00 in 10.0 mi Calm Calm - N/A   Clear
1:55 AM 35.6 °F 32.0 °F 87% 30.00 in 10.0 mi Calm Calm - N/A   Clear
2:15 AM 33.8 °F 32.0 °F 93% 30.00 in 10.0 mi Calm Calm - N/A   Clear
2:35 AM 33.8 °F 32.0 °F 93% 30.00 in 10.0 mi Calm Calm - N/A   Clear
2:55 AM 33.8 °F 32.0 °F 93% 30.01 in 10.0 mi Calm Calm - N/A   Clear
3:15 AM 32.0 °F 32.0 °F 100% 30.01 in 10.0 mi Calm Calm - N/A   Clear
3:35 AM 32.0 °F 32.0 °F 100% 30.01 in 10.0 mi Calm Calm - N/A   Clear
3:55 AM 32.0 °F 32.0 °F 100% 30.01 in 10.0 mi Calm Calm - N/A   Clear
4:15 AM 32.0 °F 32.0 °F 100% 30.01 in 10.0 mi Calm Calm - N/A   Clear
4:35 AM 32.0 °F 32.0 °F 100% 30.01 in 10.0 mi Calm Calm - N/A   Clear
4:55 AM 32.0 °F 32.0 °F 100% 30.02 in 10.0 mi Calm Calm - N/A   Clear
5:15 AM 32.0 °F 32.0 °F 100% 30.02 in 10.0 mi Calm Calm - N/A   Clear
5:35 AM 32.0 °F 32.0 °F 100% 30.03 in 10.0 mi Calm Calm - N/A   Clear
5:55 AM 32.0 °F 32.0 °F 100% 30.04 in 10.0 mi Calm Calm - N/A   Clear
6:15 AM 32.0 °F 32.0 °F 100% 30.05 in 10.0 mi Calm Calm - N/A   Clear
6:35 AM 32.0 °F 30.2 °F 93% 30.05 in 10.0 mi Calm Calm - N/A   Clear
6:55 AM 32.0 °F 32.0 °F 100% 30.05 in 10.0 mi Calm Calm - N/A   Clear
7:15 AM 32.0 °F 32.0 °F 100% 30.06 in 10.0 mi Calm Calm - N/A   Clear
7:35 AM 32.0 °F 32.0 °F 100% 30.07 in 10.0 mi Calm Calm - N/A   Clear
7:55 AM 32.0 °F 32.0 °F 100% 30.08 in 10.0 mi Calm Calm - N/A   Clear
8:15 AM 32.0 °F 32.0 °F 100% 30.08 in 10.0 mi Calm Calm - N/A   Clear
8:35 AM 32.0 °F 32.0 °F 100% 30.08 in 10.0 mi Calm Calm - N/A   Clear
8:55 AM 33.8 °F 33.8 °F 100% 30.10 in 10.0 mi Calm Calm - N/A   Clear
9:15 AM 35.6 °F 33.8 °F 93% 30.10 in 10.0 mi Calm Calm - N/A   Clear
9:35 AM 39.2 °F 35.6 °F 87% 30.10 in 10.0 mi Calm Calm - N/A   Clear
9:55 AM 44.6 °F 35.6 °F 71% 30.10 in 10.0 mi Calm Calm - N/A   Clear
10:15 AM 48.2 °F 32.0 °F 54% 30.10 in 10.0 mi Calm Calm - N/A   Clear
10:35 AM 51.8 °F 30.2 °F 44% 30.11 in 10.0 mi Calm Calm - N/A   Clear
10:55 AM 53.6 °F 28.4 °F 38% 30.10 in 10.0 mi Calm Calm - N/A   Clear
11:15 AM 55.4 °F 28.4 °F 36% 30.10 in 10.0 mi Calm Calm - N/A   Clear
11:35 AM 57.2 °F 30.2 °F 36% 30.10 in 10.0 mi SSW 5.8 mph - N/A   Clear
11:55 AM 59.0 °F 28.4 °F 31% 30.09 in 10.0 mi SW 4.6 mph - N/A   Clear
12:15 PM 60.8 °F 30.2 °F 31% 30.09 in 10.0 mi WSW 6.9 mph - N/A   Clear
12:35 PM 60.8 °F 30.2 °F 31% 30.08 in 10.0 mi WSW 3.5 mph - N/A   Clear
12:55 PM 62.6 °F 30.2 °F 30% 30.07 in 10.0 mi Calm Calm - N/A   Clear
1:15 PM 62.6 °F 28.4 °F 27% 30.07 in 10.0 mi WSW 5.8 mph - N/A   Clear
1:35 PM 64.4 °F 30.2 °F 28% 30.06 in 10.0 mi West 4.6 mph - N/A   Clear
1:55 PM 66.2 °F 28.4 °F 24% 30.05 in 10.0 mi WSW 6.9 mph - N/A   Clear
2:15 PM 68.0 °F 26.6 °F 21% 30.04 in 10.0 mi SW 4.6 mph - N/A   Clear
2:35 PM 68.0 °F 26.6 °F 21% 30.03 in 10.0 mi West 6.9 mph - N/A   Clear
2:55 PM 69.8 °F 24.8 °F 18% 30.02 in 10.0 mi West 8.1 mph - N/A   Clear
3:15 PM 68.0 °F 24.8 °F 20% 30.02 in 10.0 mi WSW 3.5 mph - N/A   Clear
3:35 PM 68.0 °F 26.6 °F 21% 30.02 in 10.0 mi Calm Calm - N/A   Clear
3:55 PM 69.8 °F 28.4 °F 21% 30.02 in 10.0 mi WSW 4.6 mph - N/A   Clear
4:15 PM 69.8 °F 30.2 °F 23% 30.01 in 10.0 mi WSW 9.2 mph - N/A   Clear
4:35 PM 68.0 °F 30.2 °F 24% 30.01 in 10.0 mi WSW 3.5 mph - N/A   Clear
4:55 PM 68.0 °F 32.0 °F 26% 30.01 in 10.0 mi WSW 6.9 mph - N/A   Clear
5:15 PM 68.0 °F 32.0 °F 26% 30.00 in 10.0 mi WSW 4.6 mph - N/A   Clear
5:35 PM 68.0 °F 32.0 °F 26% 30.00 in 10.0 mi WSW 3.5 mph - N/A   Clear
5:55 PM 66.2 °F 32.0 °F 28% 30.00 in 10.0 mi Calm Calm - N/A   Clear
6:15 PM 64.4 °F 32.0 °F 30% 30.00 in 10.0 mi Calm Calm - N/A   Clear
6:35 PM 60.8 °F 32.0 °F 34% 30.00 in 10.0 mi Calm Calm - N/A   Clear
6:55 PM 53.6 °F 37.4 °F 54% 30.00 in 10.0 mi Calm Calm - N/A   Clear
7:15 PM 53.6 °F 37.4 °F 54% 30.00 in 10.0 mi Calm Calm - N/A   Clear
7:35 PM 50.0 °F 37.4 °F 62% 29.99 in 10.0 mi Calm Calm - N/A   Clear
7:55 PM 50.0 °F 39.2 °F 66% 30.00 in 10.0 mi Calm Calm - N/A   Clear
8:15 PM 46.4 °F 37.4 °F 71% 29.99 in 10.0 mi Calm Calm - N/A   Clear
8:35 PM 46.4 °F 37.4 °F 71% 30.00 in 10.0 mi Calm Calm - N/A   Clear
8:55 PM 46.4 °F 39.2 °F 76% 29.99 in 10.0 mi Calm Calm - N/A   Clear
9:15 PM 44.6 °F 39.2 °F 81% 30.00 in 10.0 mi Calm Calm - N/A   Clear
9:35 PM 44.6 °F 37.4 °F 76% 30.00 in 10.0 mi Calm Calm - N/A   Clear
9:55 PM 44.6 °F 39.2 °F 81% 30.00 in 10.0 mi Calm Calm - N/A   Clear
10:15 PM 42.8 °F 39.2 °F 87% 30.00 in 10.0 mi Calm Calm - N/A   Clear
10:35 PM 42.8 °F 39.2 °F 87% 30.00 in 10.0 mi Calm Calm - N/A   Clear
10:55 PM 42.8 °F 39.2 °F 87% 30.00 in 10.0 mi Calm Calm - N/A   Clear
11:15 PM 41.0 °F 39.2 °F 93% 30.00 in 10.0 mi Calm Calm - N/A   Clear
11:35 PM 42.8 °F 41.0 °F 93% 30.00 in 10.0 mi Calm Calm - N/A   Clear
11:55 PM 41.0 °F 39.2 °F 93% 30.00 in 10.0 mi Calm Calm - N/A   Clear